Regional Weather Roundup
Issued by NWS

Home | Current Version | Previous Version | Text Only | Print | Product List | Glossary Off
Versions: 1 2 3 4 5 6 7 8 9 10 11 12 13 14 15 16 17 18 19 20 21 22 23 24 25 26 27 28 29 30 31 32 33 34 35 36 37 38 39 40 41 42 43 44 45 46 47 48 49 50

000
ASUS43 KBIS 041710
RWRND

NORTH DAKOTA REGIONAL WEATHER ROUNDUP
NATIONAL WEATHER SERVICE BISMARCK ND
1200 PM CDT TUE AUG 04 2015

NOTE: "FAIR" INDICATES FEW OR NO CLOUDS BELOW 12,000 FEET WITH NO
SIGNIFICANT WEATHER AND/OR OBSTRUCTIONS TO VISIBILITY.


NDZ001>003-009>011-017-041800-
NORTHWEST NORTH DAKOTA

CITY           SKY/WX    TMP DP  RH WIND       PRES   REMARKS
WILLISTON      SUNNY     82  48  30 SE13G22   29.94F
MINOT          SUNNY     78  49  35 SE8       30.00S
MINOT AFB      SUNNY     78  50  37 S9        29.99S
$$

NDZ018>021-031>035-040>046-041800-
SOUTHWEST NORTH DAKOTA

CITY           SKY/WX    TMP DP  RH WIND       PRES   REMARKS
BISMARCK       SUNNY     80  56  43 SE10      29.99F
DICKINSON      SUNNY     78  59  51 SE12      29.97F
GARRISON         N/A     75  54  47 E12       29.99F
HETTINGER ARPT SUNNY     76  58  53 SE10      29.99F
$$

NDZ004>008-012>016-024-026-027-054-041800-
NORTHEAST NORTH DAKOTA

CITY           SKY/WX    TMP DP  RH WIND       PRES   REMARKS
GRAND FORKS    MOSUNNY   72  54  53 N5        30.03S
GRND FRKS AFB  SUNNY     70  54  57 N6        30.03F
DEVILS LAKE    SUNNY     72  52  49 SE6       30.02F
$$

NDZ022-023-025-028>030-036>039-047>053-041800-
SOUTHEAST NORTH DAKOTA

CITY           SKY/WX    TMP DP  RH WIND       PRES   REMARKS
FARGO          SUNNY     75  48  38 N7        30.01F
JAMESTOWN      SUNNY     75  52  44 E5        30.01F
$$




USA.gov is the U.S. government's official web portal to all federal, state and local government web resources and services.